Starlink 31451

operational
NORAD ID: 59366 Int'l Des: 2024-060 Owner: SPXS Country: US Constellation: starlink
LEOCIRCULAR

关于 Starlink 31451

正在加载描述...

实时位置

正在加载3D地球...

即将过境

高度历史

Altitude vs Time

uPlot chart will show altitude changes over time

两行轨道根数

1 59366U 24060U 26036.17238586 .00002529 00000-0 10136-3 0 9990
2 59366 43.0024 83.1570 0001472 271.8937 88.1746 15.27590793105096
Epoch: Feb 5, 2026 • Age: 16 hours

当前状态

高度 482.4 km
速度 7.63 km/s
星下点 16.52°N, 22.84°E
发射日期 Mar 31, 2024
运行时间 1.8 years
类型 internet

技术详情

分类 Payload
质量 730.00 kg
干质量 700.00 kg
总质量 730.00 kg
长度 0.30 m
直径 4.10 m
跨度 29.00 m
形状 Box + pan
制造商 SPXS
平台类型 Starlink V2M
阶段状态 In Orbit
所有者/国家 SPXS/US

大型星座

Loading constellations...